sat.trackr.live / text

‹ back to catalog

STARLINK-33611

NORAD 63279 · 2025-053Q

PAYLOAD ACTIVE UNKNOWN

§ Identity

Operator
Country
US
Launch date
2025-03-15
Launch site
AFETR
Launch vehicle
Mass (kg)
RCS (m²)

Purposes: comms

External: N2YO · Heavens-Above · Gunter

§ Orbital elements

Epoch: 2026-05-25T01:10:11.072064Z

Period
94.27 min
Inclination
43.0009°
Eccentricity
0.0001596
Mean motion
15.27588384 rev/d
Perigee alt
481.9 km
Apogee alt
484.1 km
Semi-major
6,861.2 km
B*
2.0221e-4
RAAN
166.9022°
Arg perigee
258.7984°
Mean anomaly
101.2689°
Rev number
6,802

§ Raw data

STARLINK-336111 63279U 25053Q   26145.04873926  .00005308  00000+0  20221-3 0  99942 63279  43.0009 166.9022 0001596 258.7984 101.2689 15.27588384 68029

JSON: /api/v1/satellites/63279 · /tle

For live sub-satellite position, see the globe view (requires WebGL).

§ Visibility from observer

Set your observer location to see the next 7 days of passes ≥ 10°. The values pass through the URL so the page stays shareable.

No JS? Fill the form by hand. The geolocation button needs JavaScript.